"Pseudo-MPEC" for P20Mhz9

Created 2019 Feb 13 3:19:18 UT using Find_Orb

Click here for an explanation of pseudo-MPECs

 
 Astrometry: 
     P20Mhz9  C2019 02 08v$5Flmf8Astrometryc4O=.xaGJO`Bjjr'y:@ljD\76OW(lk^A.lF52
     P20Mhz9  C2019 02 085VxYKaSe[FVY\GI1$QWIixW[LABGredacted;/$\?@M#sm^s#=UJF52
     P20Mhz9  C2019 02 08:P.O)qJ8u`WQVQYYKLqxOh.S.N[YfsVNH2W?6InQ-2Yg7_85h[CuF52
     P20Mhz9 |C2019 02 11vbJyN'r?*gp0clickg#vj39]#'FaL2dX.;tX:I92hCS^-t;*t,q3807
     P20Mhz9 |C2019 02 11HG63ZDNTVBWI.yFb7T\S81here9/x\*mC%qE.2`,:oc\LfkL3-cA807
     P20Mhz9 |C2019 02 11SkZh_q4@%2;OOQov(\)E#Mj'Kg4qG4_a,M'e(aQC7ZNmPKu2T@j[807
     P20Mhz9  C2019 02 12.46888 14 08 56.95 +04 27 53.8    ~2CBX 21.0 GVNEOCPI52
     P20Mhz9  C2019 02 12.47132 14 08 57.26 +04 27 57.6    ~2CBX 21.9 GVNEOCPI52
     P20Mhz9  C2019 02 12.47298 14 08 57.45 +04 27 59.6    ~2CBX 21.4 GVNEOCPI52
     P20Mhz9 KC2019 02 133IfrdLEk(,C%w#Sj-$?t3`nPx18Tc%W)RAURfF4LCfor9J!Fnb%4L01
     P20Mhz9 KC2019 02 13SLq-ivdrN_'ZK'nwKa!bphg^KY2%sjXya?h8):@BA!m#IENeF.MpL01
     P20Mhz9 KC2019 02 13'T1_explanationTL%vdbk_+2:R5cQ=(xK/H###^w*9.Dm5#CS?4L01

Station data:
(807) Cerro Tololo Observatory, La Serena  (S30.169136 W70.805900)  Chile.
   1.5-m Ritchey-Chrétien.
(F52) Pan-STARRS 2, Haleakala  (N20.707384 W156.255910)  US/Hawaii.
(I52) Steward Observatory, Mt. Lemmon Station  (N32.442547 W110.788920)
   US/Arizona.  Observers B. M. Africano, E. J. Christensen, G. A. Farneth,
   D. C. Fuls, A. R. Gibbs, A. D. Grauer, H. Groeller, J. A. Johnson, R. A.
   Kowalski, S. M. Larson, G. J. Leonard, R. L. Seaman, F. C. Shelly. 1.0-m
   reflector + CCD.
(L01) Višnjan Observatory, Tičan  (N45.290900 E13.749300)  Croatia.
   Observers K. Korlević, E. Pettarin. Measurer E. Pettarin. 1.0-m f/2.9
   reflector + CCD.

Orbital elements:  P20Mhz9
   Perihelion 2019 Feb 17.599622 +/- 0.652 TT = 14:23:27 (JD 2458532.099622)
Epoch 2019 Feb 13.0 TT = JDT 2458527.5   Earth MOID: 0.5961   Ma: 0.0749
M 358.69009940 +/- 0.19             (J2000 ecliptic)          AutoNEOCP
n   0.28478440 +/- 0.0091           Peri.   22.14398 +/- 0.35
a   2.28801348 +/- 0.0487           Node   156.20786 +/- 0.21
e   0.3137094 +/- 0.0122            Incl.   29.12175 +/- 0.20
P   3.46                   H 19.2   G  0.15   U  9.6  
q 1.57024213 +/- 0.00579    Q 3.00578482 +/- 0.0941
From 12 observations 2019 Feb. 8-13; mean residual 0".26
Residuals in arcseconds: 
190208 F52  .24-  .01-    190211 807  .26+  .06+    190212 I52  .37-  .64-    
190208 F52  .09+  .00     190211 807  .31+  .04-    190213 L01  .14+  .51+    
190208 F52  .10+  .02-    190212 I52  .44-  .30+    190213 L01  .09+  .23-    
190211 807  .08-  .15+    190212 I52  .21-  .09+    190213 L01  .34+  .17-    

Ephemerides (geocentric):
Date (UTC) HH   RA              Dec         delta   r     elong  mag " sig PA
---- -- -- --  -------------   -----------  ------ ------ -----  --- ---- ---
2019 02 13 03  14 10 18.218   +04 46 04.13  .88402 1.5706 114.0 21.4 .218 150
2019 02 13 04  14 10 23.368   +04 47 13.59  .88375 1.5706 114.1 21.4 .236 150
2019 02 13 05  14 10 28.515   +04 48 23.10  .88348 1.5706 114.1 21.4 .254 150
2019 02 13 06  14 10 33.660   +04 49 32.67  .88322 1.5706 114.1 21.4 .272 150
2019 02 13 07  14 10 38.803   +04 50 42.30  .88295 1.5706 114.1 21.4 .290 150
2019 02 13 08  14 10 43.944   +04 51 51.99  .88268 1.5706 114.1 21.4 .309 150
2019 02 13 09  14 10 49.083   +04 53 01.74  .88241 1.5706 114.2 21.4 .328 150
2019 02 13 10  14 10 54.220   +04 54 11.54  .88214 1.5706 114.2 21.4 .347 150
2019 02 13 11  14 10 59.355   +04 55 21.40  .88188 1.5706 114.2 21.4 .367 150
2019 02 13 12  14 11 04.488   +04 56 31.32  .88161 1.5706 114.2 21.4 .387 150
2019 02 13 13  14 11 09.618   +04 57 41.30  .88134 1.5706 114.3 21.4 .407 150
2019 02 13 14  14 11 14.747   +04 58 51.33  .88108 1.5705 114.3 21.4 .428 150
2019 02 13 15  14 11 19.873   +05 00 01.43  .88081 1.5705 114.3 21.4 .449 150
2019 02 13 16  14 11 24.997   +05 01 11.58  .88055 1.5705 114.3 21.4 .470 150
2019 02 13 17  14 11 30.120   +05 02 21.79  .88028 1.5705 114.4 21.4 .492 150
2019 02 13 18  14 11 35.240   +05 03 32.06  .88002 1.5705 114.4 21.4 .514 150
2019 02 13 19  14 11 40.358   +05 04 42.38  .87975 1.5705 114.4 21.4 .536 150
2019 02 13 20  14 11 45.474   +05 05 52.76  .87949 1.5705 114.4 21.4 .559 150
2019 02 13 21  14 11 50.587   +05 07 03.20  .87922 1.5705 114.4 21.4 .582 150
2019 02 13 22  14 11 55.699   +05 08 13.70  .87896 1.5705 114.5 21.4 .605 150
2019 02 13 23  14 12 00.808   +05 09 24.25  .87869 1.5705 114.5 21.4 .628 151
2019 02 14 00  14 12 05.916   +05 10 34.87  .87843 1.5705 114.5 21.4 .652 151
2019 02 14 01  14 12 11.021   +05 11 45.54  .87817 1.5705 114.5 21.4 .677 151
2019 02 14 02  14 12 16.124   +05 12 56.27  .87790 1.5705 114.6 21.4 .701 151
2019 02 14 03  14 12 21.225   +05 14 07.05  .87764 1.5705 114.6 21.4 .726 151
2019 02 14 04  14 12 26.324   +05 15 17.89  .87738 1.5705 114.6 21.4 .751 151
2019 02 14 05  14 12 31.421   +05 16 28.79  .87712 1.5705 114.6 21.4 .777 151
2019 02 14 06  14 12 36.515   +05 17 39.75  .87685 1.5705 114.7 21.4 .803 151
2019 02 14 07  14 12 41.608   +05 18 50.76  .87659 1.5704 114.7 21.4 .829 151
2019 02 14 08  14 12 46.698   +05 20 01.83  .87633 1.5704 114.7 21.4 .855 151
2019 02 14 09  14 12 51.786   +05 21 12.96  .87607 1.5704 114.7 21.4 .882 151
2019 02 14 10  14 12 56.872   +05 22 24.15  .87581 1.5704 114.7 21.4 .909 151
2019 02 14 11  14 13 01.956   +05 23 35.39  .87555 1.5704 114.8 21.4 .937 151
2019 02 14 12  14 13 07.037   +05 24 46.69  .87529 1.5704 114.8 21.4 .965 151
2019 02 14 13  14 13 12.117   +05 25 58.05  .87503 1.5704 114.8 21.4 0.99 151
2019 02 14 14  14 13 17.194   +05 27 09.46  .87477 1.5704 114.8 21.4 1.02 151
2019 02 14 15  14 13 22.269   +05 28 20.93  .87451 1.5704 114.9 21.4 1.05 151
2019 02 14 16  14 13 27.342   +05 29 32.46  .87425 1.5704 114.9 21.4 1.08 151
2019 02 14 17  14 13 32.413   +05 30 44.05  .87399 1.5704 114.9 21.4 1.11 151
2019 02 14 18  14 13 37.481   +05 31 55.69  .87373 1.5704 114.9 21.4 1.14 151
2019 02 14 19  14 13 42.548   +05 33 07.39  .87348 1.5704 115.0 21.4 1.17 151
2019 02 14 20  14 13 47.612   +05 34 19.14  .87322 1.5704 115.0 21.4 1.20 151
2019 02 14 21  14 13 52.674   +05 35 30.95  .87296 1.5704 115.0 21.3 1.23 151
2019 02 14 22  14 13 57.734   +05 36 42.82  .87270 1.5704 115.0 21.3 1.26 151
2019 02 14 23  14 14 02.791   +05 37 54.74  .87244 1.5704 115.1 21.3 1.29 151
2019 02 15 00  14 14 07.847   +05 39 06.73  .87219 1.5704 115.1 21.3 1.32 151
2019 02 15 01  14 14 12.900   +05 40 18.76  .87193 1.5704 115.1 21.3 1.36 151
2019 02 15 02  14 14 17.951   +05 41 30.86  .87167 1.5704 115.1 21.3 1.39 151